RH
24 23 23 23 23 22 22 22 22 23 23 25 28 30 28 23 18 16 15 15 13 11 10 12 15 17 19 20 19 18 18 16 13 11 11 10 9 9 8 7 7 8 9 10 11 10 8 8 9 9 9 10 9 10 9 9 8 8 7 5 4 4 5 5 7 9 8 9 9 10 12 14 18 22 22 24 28 25 23 26 29 32 30 29 29 28 28 24
25 25 24 24 24 24 24 24 24 24 24 25 27 30 32 31 26 20 16 16 16 15 12 10 11 14 16 18 19 20 20 19 17 15 13 11 10 10 9 8 8 8 8 9 10 11 11 10 9 8 8 8 9 10 10 9 9 8 7 5 4 4 4 5 6 8 9 9 10 11 11 10 12 15 17 20 24 23 23 27 30 30 23 20 22 23 22 18
25 26 26 26 26 25 25 26 27 26 26 26 28 30 32 35 34 29 23 18 17 17 17 14 10 10 13 15 17 20 23 23 21 20 17 13 11 11 10 9 9 8 8 8 9 9 11 12 11 9 7 7 8 9 9 9 9 8 7 5 4 5 6 5 6 6 7 8 9 13 13 9 10 12 16 19 22 23 25 28 28 23 17 14 16 19 19 17
26 26 27 27 27 28 28 28 28 29 29 29 29 31 32 35 37 37 32 25 20 18 18 18 15 11 10 11 15 17 22 25 25 23 20 16 13 12 11 10 9 9 9 8 8 8 9 10 10 10 9 7 7 7 7 8 8 8 7 5 5 7 7 6 7 6 6 6 7 12 12 10 10 12 17 17 21 27 26 24 20 15 13 14 14 15 16 14
27 27 28 28 29 29 30 30 30 31 31 32 32 32 33 35 37 39 39 35 27 21 18 18 18 17 12 9 11 15 19 23 26 25 22 18 16 13 12 11 10 9 9 9 9 9 9 8 8 9 9 9 9 7 6 6 7 7 6 6 7 7 7 7 8 7 7 7 7 8 9 11 11 14 20 18 21 25 17 10 10 8 9 12 13 13 12 8
29 29 30 30 31 31 32 32 32 33 33 33 34 34 35 36 37 38 41 42 37 29 22 18 18 19 17 12 9 11 16 19 22 24 23 19 18 16 13 11 11 10 10 10 10 10 9 9 9 8 8 10 11 9 8 8 6 6 6 6 7 7 7 8 8 8 8 7 7 6 6 9 13 18 21 19 22 19 8 4 7 7 9 11 11 11 9 6
28 29 30 31 32 33 33 34 34 35 35 35 34 35 36 37 38 39 40 43 43 39 31 23 19 18 18 16 13 10 12 16 18 21 24 22 20 19 17 14 11 11 10 10 10 10 10 10 9 9 9 9 10 10 11 10 7 5 6 6 7 7 7 9 9 10 9 8 8 6 5 6 11 16 16 17 17 12 7 6 8 8 9 9 7 6 6 6
24 25 27 28 29 31 32 33 34 35 36 37 37 36 37 37 38 40 41 42 44 45 41 34 25 19 17 17 16 12 11 13 15 18 23 24 23 22 20 18 14 12 11 10 10 10 11 10 10 10 10 10 10 11 12 12 9 6 5 6 6 7 7 9 10 11 11 10 9 7 6 5 6 7 8 12 11 8 8 6 5 6 6 5 4 3 4 4
18 20 22 24 25 27 28 29 30 32 34 35 37 37 38 39 39 40 41 42 44 45 45 43 37 28 21 16 15 14 13 13 13 15 20 23 25 25 22 21 18 14 12 11 11 10 10 10 11 11 10 11 11 11 13 12 9 8 7 7 6 6 6 7 10 12 12 11 11 9 8 7 6 4 3 6 6 7 8 4 4 4 5 5 3 4 3 3
18 20 23 25 27 29 30 30 30 30 30 31 32 34 36 38 40 40 40 41 43 45 45 45 44 40 32 24 18 14 15 15 12 13 17 20 24 26 25 23 21 19 15 12 11 10 10 10 11 11 11 11 11 11 12 10 10 10 10 10 8 6 6 6 8 11 12 11 11 10 9 9 8 6 5 5 6 7 6 4 5 5 6 5 3 4 2 7
25 28 30 33 34 35 36 37 37 36 35 32 30 30 31 34 37 39 41 41 41 43 44 44 45 45 41 35 26 20 21 17 12 13 15 18 22 27 28 26 24 23 20 15 13 11 11 11 11 11 11 11 11 11 11 10 10 11 12 12 10 7 6 6 6 10 12 11 11 11 10 9 8 7 7 8 8 8 7 5 5 6 7 6 4 4 2 10
35 37 39 40 41 41 42 42 42 42 42 41 38 34 31 31 33 35 38 40 41 41 41 42 43 45 43 39 35 37 36 22 13 13 12 14 18 24 30 30 27 25 23 20 16 13 12 11 11 10 11 11 11 10 10 10 10 11 11 11 10 8 6 5 5 8 11 10 12 11 9 8 7 7 8 9 10 10 9 6 7 8 7 6 4 3 2 11
39 39 40 40 40 41 41 41 42 41 42 42 42 41 38 35 33 34 36 37 39 40 40 39 40 42 41 39 43 52 50 33 19 14 12 13 16 22 28 32 31 27 25 23 20 17 14 12 11 10 11 10 11 10 10 10 10 10 10 10 10 8 6 5 5 6 8 8 10 9 6 6 6 6 8 10 11 11 11 8 8 10 7 7 4 3 8 18
29 29 28 28 28 29 30 31 32 33 34 35 36 37 38 38 36 35 36 37 37 37 38 38 37 38 36 40 49 53 51 42 30 22 16 14 16 21 26 32 35 31 27 26 24 21 18 15 12 11 11 10 10 10 10 10 10 10 10 10 10 9 7 6 6 6 6 6 7 6 4 4 4 5 8 10 12 13 13 9 8 10 9 7 6 6 7 18
16 15 14 15 16 17 18 19 20 22 23 25 26 27 29 31 33 34 35 36 36 35 35 36 36 34 31 39 51 51 49 47 41 36 31 25 24 27 29 33 36 35 31 29 27 24 21 18 14 12 11 10 11 10 10 10 10 10 10 10 9 9 8 8 8 7 6 6 5 4 3 4 3 4 6 11 14 15 12 8 7 8 9 7 7 8 5 14
11 11 11 13 15 16 18 19 18 18 17 17 18 19 20 21 22 26 29 32 34 32 32 34 35 32 31 39 47 49 50 49 46 44 41 37 36 36 34 35 37 37 35 32 30 27 24 20 16 14 13 11 11 10 10 10 10 10 10 9 9 9 9 9 10 9 8 8 6 4 3 3 3 4 7 10 13 13 9 6 7 7 8 10 8 7 5 8
10 13 19 24 29 31 30 28 24 22 20 18 17 16 16 16 16 17 20 25 29 30 30 31 31 29 31 39 43 45 48 47 44 42 42 44 45 43 36 34 38 39 36 35 32 29 25 21 17 16 15 13 12 10 10 10 9 10 10 9 9 9 9 9 9 10 10 10 8 6 4 3 4 6 9 11 10 9 7 5 6 6 8 10 9 8 7 5
12 21 38 51 60 63 57 48 38 31 27 24 22 21 19 17 15 14 14 17 22 26 28 29 28 25 29 37 40 42 44 43 43 42 42 47 51 47 38 36 40 40 38 35 32 30 27 23 20 17 16 14 13 12 10 9 10 9 9 9 9 9 9 9 9 9 11 12 12 11 8 7 8 10 13 13 11 8 6 6 6 7 9 10 10 9 7 6
17 30 54 72 83 88 83 73 57 40 32 29 27 26 24 21 18 15 14 13 15 19 22 24 25 23 26 32 35 39 41 40 42 43 44 50 56 51 43 43 43 40 38 35 31 30 27 24 21 17 14 13 12 12 11 11 11 10 10 9 9 9 9 9 9 9 11 13 16 16 14 14 16 17 16 15 15 13 10 9 9 9 10 11 11 9 7 11
26 34 58 83 91 92 91 87 70 49 37 34 32 31 28 25 22 18 15 13 12 13 16 21 23 23 24 27 30 34 38 40 40 41 45 53 58 53 47 47 45 40 37 35 32 30 28 24 21 18 14 13 13 13 14 14 13 11 10 10 9 9 8 9 9 9 12 13 14 16 17 19 23 23 20 19 19 18 16 14 13 12 12 12 11 9 11 19
32 36 59 86 94 94 93 84 68 50 40 35 33 32 29 25 24 21 17 14 11 11 12 16 20 22 24 24 26 30 34 37 39 40 43 52 58 53 47 47 44 40 37 36 34 30 28 23 20 19 17 15 15 15 16 17 16 13 12 10 9 9 8 9 9 10 13 14 13 17 21 23 26 26 22 21 22 22 20 17 15 13 13 13 12 9 11 25
40 48 63 83 92 90 82 67 53 44 40 39 37 33 26 20 17 16 16 14 12 11 10 12 16 19 21 20 22 27 30 33 37 40 42 50 59 54 46 46 44 41 40 38 35 31 26 22 21 22 20 17 17 16 16 18 17 16 14 12 10 9 8 8 9 11 14 14 13 16 21 25 29 27 23 25 30 29 24 20 18 15 13 12 12 10 10 22
43 52 58 69 74 68 60 50 42 42 47 49 46 42 39 34 28 21 14 11 12 12 9 8 11 15 16 15 18 24 28 31 35 39 41 47 56 57 50 45 44 45 44 38 34 31 25 23 24 24 22 19 18 16 16 17 17 17 15 13 12 10 9 9 8 10 13 13 14 19 23 27 31 27 24 29 34 32 28 24 19 15 14 13 11 10 11 20
35 42 47 54 55 50 46 39 41 53 58 57 57 62 65 65 66 54 34 20 13 10 10 8 8 11 13 12 16 22 24 28 33 36 40 44 52 60 55 47 47 48 45 39 36 32 27 25 26 26 24 21 19 17 16 16 16 16 16 15 14 12 10 10 9 11 13 12 16 24 29 28 28 28 28 33 33 32 32 27 19 15 14 13 13 16 19 26
28 31 41 51 50 45 36 36 59 72 60 58 66 71 75 78 82 73 57 44 29 12 6 7 8 8 11 11 15 20 22 25 30 34 38 41 50 60 58 52 50 49 45 42 38 35 30 28 29 28 25 22 20 18 16 16 16 16 16 16 16 14 12 11 12 12 12 11 16 27 33 27 26 29 31 35 35 32 33 28 20 16 13 12 16 20 22 28
31 28 35 45 43 37 32 48 84 80 52 60 70 65 73 82 79 71 67 69 63 41 18 8 8 9 8 10 13 16 20 23 26 31 36 38 47 58 60 55 50 49 49 45 40 38 34 31 31 29 27 24 21 19 17 16 17 15 16 18 18 16 14 13 13 12 12 15 20 30 34 29 28 28 29 36 40 37 35 29 21 17 15 15 15 18 23 34
32 32 35 38 33 33 40 62 91 78 48 55 63 59 70 78 77 76 76 82 91 85 59 30 21 24 15 7 12 13 15 19 21 28 34 35 44 56 60 56 50 52 53 49 42 38 35 34 32 31 29 26 22 20 17 16 16 15 16 19 19 18 16 15 15 13 15 19 23 30 36 35 33 31 33 40 41 39 37 29 23 20 17 18 19 25 35 44
23 28 31 32 32 39 49 63 85 82 59 52 56 62 71 76 81 89 90 92 99 99 89 64 48 48 30 8 9 12 12 14 16 23 29 31 40 52 58 56 52 54 55 51 42 38 38 37 34 32 30 27 24 21 19 17 15 16 20 21 20 19 18 19 18 17 22 25 25 32 40 43 43 41 42 45 40 35 32 29 29 27 21 25 31 35 41 45
17 22 28 32 36 43 51 61 79 90 82 72 69 69 72 76 83 93 98 101 101 95 95 89 73 61 40 15 9 10 10 12 14 19 23 27 35 46 58 59 54 56 57 52 45 42 42 39 36 34 31 28 26 24 22 19 17 19 22 22 20 19 21 26 25 24 33 35 30 37 45 46 45 45 44 44 40 33 29 30 36 36 29 30 32 34 38 39
18 21 27 31 35 41 49 59 77 95 96 92 90 81 75 78 84 96 101 99 100 98 98 99 89 72 47 22 12 10 10 11 12 16 19 25 31 42 57 62 57 56 58 55 49 44 42 42 40 37 33 31 29 27 25 22 21 23 23 23 21 20 26 34 33 35 44 40 32 34 44 50 47 44 44 44 43 40 35 33 37 40 36 33 31 31 35 33
22 21 27 27 31 39 45 53 72 95 99 96 98 93 89 90 92 99 102 97 99 101 99 100 100 87 61 35 19 13 11 11 12 15 18 22 28 39 55 63 59 55 55 56 51 45 43 44 42 37 35 35 32 30 28 26 25 23 22 22 21 23 30 36 38 44 45 39 34 29 40 57 51 42 48 51 45 38 31 29 38 47 47 43 37 33 36 37
37 25 24 25 27 33 41 51 67 90 98 90 86 87 92 98 100 99 98 96 98 99 95 95 102 98 82 61 37 19 12 10 11 14 17 22 26 36 50 58 58 54 51 51 51 47 43 42 41 40 39 36 34 32 31 30 28 23 22 22 23 31 34 31 36 45 41 36 38 36 44 55 46 40 51 53 41 30 24 26 36 48 47 39 33 29 33 42
68 42 28 26 27 30 41 51 62 82 97 91 76 75 86 96 97 96 96 95 95 96 95 95 100 101 95 81 53 28 16 10 11 14 16 20 25 34 47 56 59 56 49 48 51 50 46 45 45 42 40 37 35 34 32 31 27 23 23 21 23 33 34 27 30 41 42 38 41 44 48 49 44 44 48 44 38 32 31 35 38 41 36 26 23 20 21 34
95 75 53 38 32 35 42 47 59 79 98 98 78 68 78 85 85 91 97 95 92 96 98 99 100 97 97 88 59 33 20 10 10 14 16 19 24 33 45 55 59 56 51 52 54 51 46 44 42 38 37 37 35 34 33 32 29 25 24 22 23 28 31 30 33 42 44 39 41 46 47 47 49 48 40 36 41 36 32 39 43 40 34 27 22 17 17 29
100 98 87 71 61 57 56 63 78 91 101 100 84 70 69 75 83 92 90 82 85 89 85 88 96 93 94 92 66 37 22 15 13 14 15 18 22 31 41 50 57 56 55 55 52 49 46 42 38 37 38 38 37 37 38 35 31 28 26 23 20 26 37 39 38 46 46 39 42 48 48 50 53 52 45 40 44 37 26 33 42 40 36 34 27 22 25 34
98 101 100 97 94 87 85 92 98 101 102 99 93 82 74 76 85 92 85 80 89 86 68 72 90 95 94 94 77 43 20 20 23 18 16 17 20 30 39 48 58 59 54 53 51 48 45 42 42 42 40 40 40 39 39 35 31 30 28 22 18 29 47 49 42 48 49 41 43 47 48 54 57 54 48 44 47 43 30 31 40 38 34 34 33 36 39 39
100 100 100 101 101 99 102 103 102 103 101 100 100 90 82 78 80 94 96 92 98 89 71 77 93 95 92 97 89 54 22 22 25 17 15 17 20 28 39 49 60 62 55 53 53 49 45 44 45 44 40 42 44 44 42 37 33 32 28 23 21 29 43 47 44 47 50 46 46 47 48 56 58 50 42 41 48 50 41 39 40 34 28 30 38 50 51 46
100 101 101 101 99 100 102 101 102 102 95 95 95 89 86 77 75 94 100 97 100 87 81 94 95 88 90 98 91 56 26 21 18 13 16 17 20 28 38 50 58 62 60 58 56 54 53 52 49 46 45 45 48 50 47 40 35 32 29 26 24 24 31 41 42 41 43 48 51 51 51 56 57 47 38 37 44 52 50 44 39 30 26 32 45 60 62 54
98 100 101 101 100 100 100 100 102 102 96 91 85 84 86 74 72 85 91 100 99 81 89 100 87 87 92 83 66 46 38 33 16 12 17 17 22 29 36 49 57 63 67 64 60 57 58 61 56 50 50 52 54 52 45 39 34 32 33 32 27 22 25 35 37 32 35 45 52 54 54 56 57 48 37 35 41 52 56 50 39 28 26 38 50 54 52 49
98 100 100 100 100 100 100 100 99 101 100 90 80 84 83 75 75 74 80 99 93 82 100 99 88 95 80 58 58 68 81 65 23 11 15 16 25 33 37 47 58 69 73 69 68 66 64 68 66 60 58 57 53 46 40 38 35 31 32 35 32 27 28 35 37 30 29 39 49 56 55 53 53 50 42 37 37 47 58 57 45 30 26 39 47 38 31 35
99 101 98 96 99 99 99 100 99 100 95 79 78 90 90 87 84 68 71 87 82 87 101 96 98 88 54 59 86 94 100 76 28 14 16 16 28 36 39 49 62 79 84 79 77 75 71 73 74 69 60 54 50 44 41 40 36 32 31 34 38 36 33 38 39 31 27 33 41 49 53 52 51 49 45 39 35 43 53 50 40 33 29 33 34 24 23 34
98 101 98 94 97 99 100 100 90 81 74 69 77 86 81 80 77 67 73 74 70 87 97 95 97 70 52 86 99 90 97 73 30 21 17 14 27 37 46 61 77 91 94 87 81 79 80 83 83 72 54 50 54 49 45 43 39 36 35 39 46 44 37 37 42 39 31 31 34 37 43 47 46 44 41 36 33 37 38 33 33 36 29 22 20 17 25 40
96 101 100 94 95 99 100 92 73 57 55 63 74 77 72 74 76 73 72 63 65 89 99 98 91 70 75 93 82 86 101 70 38 32 22 18 27 41 63 84 96 101 97 95 94 91 89 86 83 75 60 58 59 52 51 51 42 36 37 42 47 49 45 43 52 57 46 36 36 35 37 38 34 33 30 27 28 30 31 36 46 47 31 19 21 22 31 45
94 101 100 96 98 98 86 67 53 46 48 55 60 65 75 89 92 82 71 63 68 85 97 98 89 79 83 81 81 97 91 66 62 50 26 25 31 50 83 99 102 102 98 99 100 96 91 84 83 82 74 70 65 58 59 53 39 33 35 41 45 50 56 56 62 70 62 48 41 39 40 38 33 31 28 27 30 34 41 56 65 56 36 25 27 26 27 38
83 94 98 99 100 94 69 46 41 42 46 53 56 63 82 98 98 88 80 73 71 80 90 89 76 71 78 85 98 99 78 76 89 63 31 31 43 68 97 102 100 101 100 101 100 98 93 85 84 82 71 64 59 53 51 43 35 36 38 41 42 46 57 65 68 71 68 59 51 47 46 42 35 33 35 41 46 47 54 66 65 47 31 30 35 34 30 32
62 78 90 97 102 97 69 42 39 47 52 57 63 75 90 96 94 90 86 82 82 84 79 67 55 60 81 94 91 87 87 94 94 70 44 38 58 89 103 100 101 102 101 101 98 99 99 87 83 81 68 58 52 47 46 44 42 45 47 47 43 41 51 64 70 70 67 64 64 63 58 50 43 38 40 52 64 66 66 69 61 41 32 43 51 48 43 40
54 65 76 85 94 101 87 55 41 50 60 65 76 90 98 98 95 91 89 87 81 70 61 63 72 81 92 90 78 86 102 98 87 75 52 46 75 101 101 98 102 100 101 102 97 99 102 91 84 84 76 67 61 54 51 53 54 54 54 53 48 42 44 54 65 69 66 66 73 76 69 60 54 49 50 59 70 74 72 69 63 50 44 54 59 50 42 40
58 65 74 82 87 95 100 83 57 47 56 70 84 95 98 100 98 94 95 91 70 54 61 76 83 80 75 70 76 96 104 96 97 91 69 69 92 101 98 100 101 100 101 102 100 100 102 97 89 89 88 79 71 64 58 58 60 59 55 51 49 46 41 44 55 62 61 62 70 77 73 64 59 59 65 72 72 71 70 67 63 57 49 52 54 48 42 38
61 67 74 81 84 89 98 100 82 57 49 62 81 93 97 97 92 91 97 88 63 63 85 84 62 54 64 75 87 101 100 98 104 90 74 86 98 97 99 99 99 102 98 96 100 100 101 101 94 91 92 83 73 69 65 62 61 58 52 46 47 51 47 42 46 52 55 58 64 72 73 67 62 66 78 83 79 76 76 71 64 57 49 46 44 40 40 43
51 58 70 79 84 87 91 99 99 81 60 57 68 82 93 90 76 74 82 70 54 72 101 92 66 65 83 95 98 101 99 96 89 72 73 93 97 93 99 98 98 101 92 89 101 101 98 101 96 91 91 83 73 69 68 65 61 57 51 43 43 50 51 44 41 46 54 59 62 68 73 71 67 70 78 82 82 79 72 65 61 56 50 45 40 37 40 46
45 46 60 75 83 87 89 94 101 98 86 77 70 71 85 87 66 56 59 51 52 79 97 87 81 89 97 102 101 100 95 82 65 61 81 101 98 96 103 98 94 97 89 86 96 100 98 100 97 93 90 83 75 71 68 65 62 58 50 43 43 46 48 47 43 44 52 59 62 66 72 76 74 68 65 67 72 68 56 51 52 52 51 45 40 41 41 40
60 56 55 63 75 87 95 98 100 99 98 97 90 83 88 88 69 54 51 47 58 84 92 85 90 98 101 102 98 91 90 81 63 63 85 100 98 99 102 93 88 96 97 91 94 99 100 99 93 86 84 80 73 69 68 66 65 60 48 43 45 43 46 49 46 47 54 59 62 64 67 75 79 72 62 60 60 54 45 42 41 40 43 43 40 39 37 32
Wind_Speed
46 47 48 48 49 50 50 51 52 53 54 55 57 58 58 58 58 58 58 58 57 56 56 55 54 54 53 53 53 53 53 53 54 53 51 49 51 51 49 48 47 47 48 49 50 50 50 50 49 49 48 46 44 42 42 41 40 40 40 40 39 36 34 34 35 36 36 33 31 30 31 31 32 35 36 36 37 42 45 45 41 39 41 43 43 44 46 46
43 44 45 46 47 48 49 50 51 53 54 55 57 58 59 59 59 59 59 59 59 58 58 57 56 55 55 54 54 53 54 54 54 53 52 53 54 52 49 48 47 46 46 46 48 48 49 50 50 51 50 49 47 45 44 43 42 41 39 40 38 32 29 28 30 31 32 32 29 28 30 30 31 35 37 36 37 42 45 44 41 38 40 42 43 45 46 45
42 42 43 44 45 46 47 49 50 52 53 55 56 58 59 60 60 60 60 59 59 59 59 59 58 57 56 55 54 54 54 54 54 54 54 55 55 53 51 50 49 47 46 46 46 47 47 49 50 51 51 51 49 48 47 45 44 42 40 40 36 31 29 28 28 26 26 27 26 27 28 29 31 34 37 38 39 43 44 43 42 38 38 40 42 44 46 44
43 44 44 44 44 45 46 47 48 50 52 53 55 56 58 59 60 60 60 60 60 60 60 60 59 59 58 57 56 54 54 54 55 55 56 56 55 54 53 52 51 49 47 46 45 45 45 46 48 49 50 50 50 50 49 47 45 43 41 39 34 32 31 28 26 24 22 23 22 24 28 32 34 36 38 40 41 44 45 44 42 37 37 41 41 43 46 44
45 45 46 46 46 46 46 46 47 49 50 52 53 55 56 58 59 60 60 61 61 60 60 60 60 60 59 58 57 55 54 54 55 56 57 57 56 55 55 54 53 51 49 47 45 43 43 43 44 45 46 47 48 50 49 48 47 45 41 38 36 34 32 29 27 24 22 22 22 24 30 35 38 39 40 41 43 44 43 41 39 35 36 39 40 43 45 41
47 47 47 47 48 48 48 48 48 49 50 51 52 53 55 56 58 59 60 61 61 61 61 60 60 61 61 60 59 57 55 54 55 56 57 57 56 55 56 56 55 54 51 49 46 44 43 42 42 42 42 43 46 47 47 46 47 46 42 40 38 36 33 30 29 26 24 25 25 26 31 37 40 40 41 42 42 41 39 37 35 32 34 35 36 40 41 37
48 48 48 48 49 49 49 50 50 50 50 51 52 53 54 55 56 58 59 60 61 61 61 61 61 61 61 61 60 59 57 56 55 55 56 57 57 56 56 56 56 56 53 51 48 46 44 43 41 40 39 39 41 42 43 45 47 47 44 42 40 37 35 32 30 28 27 26 26 28 32 36 40 41 42 41 40 40 38 33 29 30 33 34 34 36 35 33
50 49 49 49 49 50 50 51 52 52 52 52 52 53 54 55 56 56 57 59 60 61 62 62 61 61 61 61 61 60 57 56 56 55 55 56 56 56 56 56 56 56 55 53 50 48 47 45 42 40 38 36 36 37 39 42 46 47 45 43 42 40 37 35 32 31 30 28 27 30 33 35 38 38 39 38 38 38 31 24 24 28 31 32 33 32 30 29
51 50 50 49 49 49 50 51 52 53 53 54 54 54 54 55 55 56 57 57 58 60 61 62 62 62 62 61 62 60 57 57 58 57 55 54 55 57 56 55 56 56 56 55 54 52 51 48 44 41 38 36 35 34 36 39 42 43 43 43 43 41 40 38 35 34 34 32 31 33 34 34 35 35 32 29 31 30 22 20 24 26 28 30 31 29 27 28
50 50 50 49 49 49 49 49 50 51 52 53 54 55 54 54 55 56 57 57 57 58 59 61 61 62 63 62 62 59 56 58 60 58 56 54 55 57 57 56 55 55 55 56 56 54 52 49 45 43 41 38 37 36 35 36 36 38 39 41 43 42 42 40 37 36 37 36 36 37 35 34 35 35 27 20 24 25 20 22 25 27 28 30 31 28 27 30
49 49 49 48 48 48 48 48 48 48 49 51 52 54 55 55 55 55 56 57 57 57 58 58 59 61 62 63 62 58 57 59 60 60 58 55 54 55 56 56 55 54 53 54 55 55 53 50 48 47 45 42 40 38 36 35 33 34 37 40 43 44 43 42 40 38 39 39 38 39 37 36 36 33 25 20 23 25 22 24 27 29 29 30 30 28 29 30
49 48 48 49 49 48 48 48 48 48 48 49 50 51 53 55 55 55 55 56 57 58 58 58 58 58 60 62 61 59 59 61 61 61 60 58 56 55 55 56 55 54 53 53 53 54 54 52 52 51 48 45 42 40 38 35 34 34 35 37 40 44 45 44 42 40 40 41 40 41 40 37 36 31 26 25 25 25 26 27 30 32 31 30 29 27 28 26
50 50 50 50 50 50 50 49 49 49 49 49 49 50 51 53 54 55 55 56 56 57 58 59 58 57 58 58 58 59 59 61 62 61 60 59 57 55 55 55 55 55 54 52 51 52 54 54 54 53 50 48 45 42 40 38 36 36 36 35 37 41 45 45 43 41 42 42 41 42 41 36 34 32 30 27 25 27 30 31 34 34 31 29 26 26 27 25
51 51 51 51 51 51 51 51 51 50 50 50 50 50 51 52 53 55 55 56 56 57 57 58 58 58 58 54 54 58 59 60 62 61 61 59 57 56 55 55 55 55 54 53 51 50 52 54 55 54 53 50 47 45 43 41 40 39 38 37 37 38 41 42 43 42 42 43 42 43 39 34 34 33 29 26 26 29 32 35 37 34 31 28 26 27 27 25
51 52 52 52 52 51 50 50 50 50 50 50 50 50 51 51 52 54 56 56 56 57 56 57 58 59 58 53 53 56 55 57 60 61 61 59 56 55 55 55 55 54 53 52 51 50 50 52 54 55 55 53 50 49 46 45 44 43 42 41 39 37 35 36 39 40 41 41 42 43 38 33 33 31 27 26 28 31 35 37 36 33 32 28 26 29 27 23
55 55 55 53 52 49 47 46 45 45 45 46 47 48 50 50 52 53 55 57 57 57 57 56 57 59 58 54 52 52 53 55 58 61 61 59 55 53 55 55 54 54 53 51 50 49 49 51 52 53 54 54 53 52 50 49 48 47 46 44 40 36 33 31 33 37 38 39 41 42 38 33 33 30 27 28 30 33 36 36 35 33 32 29 27 29 26 22
57 55 53 50 47 44 42 41 40 39 39 40 41 43 45 47 50 51 53 56 58 58 58 57 58 59 57 55 53 51 53 55 57 60 60 58 55 54 56 55 53 54 54 52 51 50 50 51 52 51 52 53 54 54 54 54 53 51 49 46 41 36 32 28 28 31 34 37 38 39 38 34 31 29 28 29 30 32 35 36 36 34 32 30 28 27 24 22
53 49 45 42 39 37 36 35 34 34 34 34 35 37 39 42 46 49 52 54 56 58 58 58 59 60 56 54 53 51 53 55 56 58 58 56 54 55 57 56 55 56 55 55 54 52 52 53 53 52 52 53 55 57 58 57 54 52 49 46 42 36 31 26 23 24 27 30 33 35 36 32 30 30 29 29 29 31 34 36 36 34 32 30 28 26 22 20
46 42 38 35 34 34 33 32 31 30 30 31 33 34 36 39 42 45 48 52 54 56 58 58 59 60 57 54 53 51 52 55 56 56 56 53 52 55 58 57 57 57 57 58 57 56 55 55 55 55 56 56 55 56 56 53 51 50 48 45 40 35 31 26 22 20 22 26 30 33 33 28 28 30 28 27 28 30 33 34 34 33 31 29 26 24 22 20
41 37 34 32 32 33 32 30 29 29 31 32 34 36 38 41 42 44 47 50 52 54 57 58 59 60 57 53 52 52 52 55 56 56 55 52 51 55 58 59 59 59 59 60 60 59 58 58 58 57 56 54 53 52 51 49 48 49 48 45 40 37 34 29 24 20 21 25 28 30 30 27 28 30 28 28 28 30 32 31 31 30 29 27 23 21 20 19
38 33 29 28 29 29 28 27 28 30 33 36 38 41 43 44 44 46 48 48 50 53 55 57 59 60 57 53 53 53 53 55 56 56 55 52 53 56 59 60 61 61 60 60 61 60 60 59 57 55 53 51 50 49 47 45 46 47 47 45 41 38 36 31 27 22 22 26 26 25 26 26 27 28 28 28 27 28 29 29 29 28 27 25 21 19 19 19
35 29 25 23 23 24 24 26 29 32 36 39 41 41 41 41 43 46 49 48 48 52 54 56 58 59 56 51 53 54 53 54 55 55 55 53 53 55 59 61 61 62 60 61 62 62 62 60 56 54 51 50 48 48 46 43 44 46 45 44 41 39 37 33 31 26 25 27 25 23 24 24 24 26 28 26 22 23 25 26 27 26 26 24 20 20 20 20
32 27 23 21 21 22 25 28 31 35 38 36 32 31 28 26 28 33 41 45 45 49 53 55 56 59 55 49 53 56 53 53 54 56 55 53 53 53 57 60 60 62 62 62 63 63 63 60 56 53 51 49 48 47 46 44 45 46 45 44 42 39 37 35 32 28 27 27 24 22 23 22 22 25 28 25 20 20 21 24 26 26 26 23 21 21 20 20
29 27 25 24 24 25 27 30 33 37 34 25 22 22 20 18 18 20 25 30 36 44 51 52 53 57 53 49 55 57 53 53 54 55 55 53 53 54 55 58 59 62 63 61 61 61 61 58 54 53 50 49 48 47 47 45 46 46 45 44 40 38 36 32 29 28 29 29 25 23 24 25 24 25 26 22 20 19 19 22 26 26 25 22 21 20 19 20
29 28 27 26 26 27 28 30 35 36 25 17 18 19 17 17 17 16 14 14 19 32 44 47 49 52 52 50 56 57 53 54 54 54 56 54 53 54 55 58 59 60 61 61 60 60 60 57 53 52 50 49 48 48 47 45 45 44 43 41 37 35 33 28 28 30 32 32 28 25 25 26 25 25 23 21 20 18 17 20 24 25 24 22 21 20 19 19
32 28 28 27 25 25 27 31 36 33 20 14 17 18 17 17 16 15 10 4 7 13 27 38 43 47 49 49 52 56 53 51 53 55 56 55 54 55 56 58 58 58 59 60 60 61 60 56 53 52 50 49 48 47 46 44 43 43 40 36 32 32 31 28 28 31 33 32 29 26 25 25 25 24 23 20 19 16 15 17 20 22 22 21 21 19 19 18
34 29 27 24 21 22 26 31 34 32 21 14 16 17 17 16 15 14 6 4 7 7 7 23 33 38 44 47 49 52 49 47 51 54 54 54 54 56 57 57 56 57 60 61 61 61 60 56 54 52 51 50 49 48 45 44 44 41 35 31 30 30 28 27 28 31 32 32 31 29 26 24 24 24 21 20 18 16 14 15 15 18 20 19 19 18 17 17
33 26 22 20 20 22 25 29 31 32 26 18 16 16 15 16 14 11 8 8 9 10 5 7 20 31 40 47 49 49 45 44 48 51 51 54 55 56 57 56 56 57 60 62 62 61 59 58 55 53 52 51 49 47 44 43 43 36 30 30 30 28 25 26 29 31 32 34 34 30 26 24 24 24 22 21 20 17 14 12 12 16 18 18 17 16 16 19
29 21 18 18 21 22 24 27 29 29 29 24 20 17 15 16 13 10 9 11 13 12 6 1 12 26 37 44 48 48 45 43 46 50 51 53 54 55 56 56 57 57 59 62 61 60 59 56 53 52 51 50 48 44 42 41 38 31 29 30 29 27 27 30 32 33 34 35 35 30 25 24 24 23 23 22 21 19 16 15 14 16 18 18 18 17 17 20
25 18 17 19 20 21 22 25 27 28 28 26 23 19 16 16 14 11 11 12 16 15 7 1 8 22 32 39 44 46 46 46 47 50 51 52 53 55 56 56 56 56 58 61 61 59 56 53 52 52 51 48 45 42 40 38 33 30 31 31 30 30 32 35 36 36 37 38 35 31 26 24 24 24 23 22 23 24 24 22 18 17 18 17 17 17 17 19
23 17 17 19 19 20 22 24 27 27 27 26 24 20 16 16 15 14 14 13 14 14 7 1 5 15 24 33 40 43 45 47 49 49 51 53 54 55 57 56 55 55 57 60 61 58 56 54 54 53 50 47 43 41 39 36 33 33 35 34 33 33 36 40 40 40 42 40 36 33 30 29 30 28 24 25 28 28 26 24 20 17 16 15 14 14 15 16
24 18 17 19 18 19 21 23 25 27 25 24 23 22 18 17 17 16 16 15 13 12 7 1 4 10 19 24 33 40 43 47 49 49 51 54 56 56 57 56 54 55 57 59 59 57 57 56 54 53 51 47 44 42 41 39 37 38 39 37 37 38 40 43 45 45 45 40 36 33 32 34 34 30 26 26 25 22 19 21 20 16 14 14 13 13 13 13
25 21 18 19 18 19 21 22 24 26 25 21 19 20 19 19 19 17 16 14 11 11 10 5 6 8 17 21 29 38 41 45 49 49 51 54 57 57 57 56 55 55 56 57 59 59 58 57 55 54 52 49 47 46 45 44 43 43 43 42 42 43 43 45 47 47 46 41 37 34 33 35 34 30 29 24 16 11 13 17 16 16 17 16 16 15 14 13
29 24 20 19 18 18 21 23 25 26 25 20 16 16 17 17 18 16 16 12 8 11 10 4 5 6 16 20 28 37 41 45 49 50 51 53 57 59 59 57 55 54 55 57 59 59 58 58 57 56 54 51 49 47 45 43 43 43 44 44 45 45 45 45 46 47 46 41 38 37 37 37 34 31 28 19 14 15 17 17 16 17 17 16 16 16 15 14
33 29 25 22 20 20 22 24 26 25 21 17 13 13 14 14 15 14 14 12 9 11 7 1 3 6 15 18 25 36 42 45 47 49 51 53 56 59 59 57 54 54 55 56 57 57 57 56 55 54 53 51 49 46 43 41 41 42 44 45 46 46 44 44 44 44 43 41 38 38 39 35 32 29 23 19 19 21 20 19 19 17 15 15 15 14 13 13
35 33 30 27 24 21 21 22 22 20 17 15 13 12 11 11 12 13 12 11 9 7 3 2 2 7 13 16 24 34 42 44 46 49 50 52 55 57 58 56 54 54 54 53 55 55 56 54 51 51 51 50 48 45 43 43 42 42 45 47 46 45 45 44 44 43 42 40 39 39 37 32 29 27 24 22 20 20 22 21 18 14 12 13 13 11 10 10
35 34 32 32 28 24 21 19 18 17 15 14 12 9 8 9 10 12 13 12 9 3 0 1 3 10 12 15 22 32 41 44 46 48 50 52 55 58 59 57 54 52 50 50 52 53 53 52 51 50 49 48 47 43 42 41 41 42 45 45 44 45 47 47 46 45 44 41 40 39 36 30 28 28 28 26 21 18 20 20 17 12 8 8 9 9 9 10
34 33 33 33 30 27 23 19 16 15 15 14 12 8 5 5 7 10 12 12 8 1 3 2 7 12 13 15 22 31 40 43 45 48 50 52 54 57 59 57 53 50 48 48 50 51 50 49 50 50 47 46 45 43 42 41 40 41 42 41 42 46 49 49 48 47 46 44 41 39 36 30 27 29 30 27 23 21 20 19 16 10 7 8 10 9 8 9
33 32 33 34 32 29 26 22 17 15 15 15 14 11 6 3 6 8 10 12 8 2 5 4 10 13 14 19 25 31 35 39 44 47 49 51 52 55 58 56 52 49 47 47 49 49 48 47 47 48 45 43 44 45 45 44 43 42 40 40 43 46 47 48 48 47 45 46 44 40 38 32 28 29 30 27 24 24 22 20 16 12 10 11 12 10 9 10
33 32 32 34 34 31 26 24 22 18 15 16 16 12 7 3 6 7 7 10 5 5 5 5 11 12 16 25 31 32 32 34 41 46 48 49 49 52 56 56 52 48 45 46 48 48 47 45 43 42 42 42 44 47 47 45 44 43 43 44 44 45 45 44 46 47 45 46 46 43 41 37 32 31 32 29 26 25 24 21 17 16 14 15 15 11 11 13
34 31 32 33 34 32 27 24 24 20 15 14 16 15 8 4 3 3 6 8 2 6 4 6 11 12 21 33 36 35 32 33 39 44 46 47 49 51 54 54 52 47 45 46 48 47 46 42 38 38 42 44 44 45 44 42 42 42 42 44 45 44 44 42 42 44 45 45 46 45 43 41 38 35 33 31 27 25 24 23 21 21 20 20 18 15 14 13
34 31 31 32 33 34 30 25 24 21 17 16 17 17 13 7 2 2 4 4 4 6 4 8 10 16 28 33 33 33 29 29 36 40 43 48 50 51 51 51 49 47 45 45 44 44 43 39 35 36 42 43 42 41 41 41 41 41 41 44 45 43 43 42 38 37 40 42 42 44 44 43 42 40 37 35 32 28 26 24 24 25 25 23 20 18 17 15
33 31 30 32 34 35 32 26 23 22 20 19 18 17 17 15 10 8 7 5 6 5 5 9 13 23 31 29 29 28 23 26 34 35 40 46 49 50 50 48 47 47 47 45 42 42 42 40 37 36 37 38 38 38 39 40 41 42 42 44 46 45 42 40 33 29 32 36 37 38 38 40 41 41 39 38 36 32 27 24 23 24 25 21 17 16 17 18
31 30 30 32 34 34 32 27 23 22 20 19 19 17 16 16 14 11 10 7 5 4 5 10 16 25 30 27 26 25 22 26 30 32 39 45 47 50 49 47 47 47 47 46 44 43 42 42 39 36 35 36 36 38 40 41 42 44 44 44 47 46 42 37 32 27 25 27 32 31 29 30 31 30 30 30 29 27 24 22 22 23 21 19 16 15 18 21
29 28 28 31 33 33 30 25 22 21 20 19 18 16 16 16 14 12 10 8 7 5 6 10 17 26 29 26 24 22 23 27 26 31 41 44 45 48 48 47 47 46 47 48 47 44 42 41 40 37 38 40 42 44 45 44 44 44 44 44 45 47 45 38 34 32 26 22 25 25 23 25 25 22 22 23 22 23 23 23 24 23 20 17 16 16 18 23
28 28 27 28 30 31 28 23 21 20 19 17 17 16 16 15 14 13 11 10 9 9 12 17 23 29 29 24 22 23 25 26 25 32 41 45 48 49 48 48 47 47 50 51 49 45 40 39 39 36 35 38 41 45 46 44 43 43 42 43 44 46 47 42 36 35 31 22 19 20 19 20 21 21 22 22 21 21 23 24 24 22 18 15 14 14 15 19
29 28 27 27 27 28 27 22 19 19 19 18 18 19 17 14 12 12 12 11 11 16 22 26 28 29 26 23 24 26 26 25 26 32 40 46 52 53 50 49 48 50 52 50 49 45 37 34 37 35 31 33 36 40 43 43 41 41 41 43 42 42 46 45 39 35 33 26 19 18 18 18 18 21 23 23 22 22 24 25 25 23 19 17 17 16 16 17
28 28 28 26 25 26 27 23 17 16 18 18 19 21 21 17 12 11 12 13 16 23 28 28 26 24 24 27 30 29 27 27 28 32 39 48 55 57 53 50 49 51 53 51 49 45 35 32 36 36 33 32 33 36 41 43 41 41 42 42 40 38 40 43 40 34 34 31 23 19 20 20 20 23 23 22 22 23 24 25 25 24 23 23 23 21 19 17
23 25 26 25 24 23 26 26 19 14 14 15 18 22 22 18 14 11 11 15 21 25 26 27 26 24 27 31 31 29 29 31 32 35 43 52 57 57 55 51 48 51 53 50 47 46 38 33 36 37 33 32 30 31 38 43 42 43 43 42 40 37 36 40 40 36 35 34 28 23 24 24 23 24 24 23 23 23 23 23 23 23 23 24 26 24 21 18
20 22 24 24 24 22 23 25 23 17 13 12 15 19 21 17 14 11 12 19 26 27 25 26 28 28 29 29 26 28 32 32 33 39 47 53 56 56 52 49 50 52 50 45 44 44 39 35 36 36 33 31 29 30 37 44 44 44 43 43 42 38 36 38 40 39 37 36 33 29 28 28 27 27 27 26 26 25 24 23 22 21 20 20 21 21 19 16
22 23 22 21 21 21 21 21 22 20 16 14 14 16 18 17 14 14 17 25 28 26 24 26 30 29 25 22 23 28 32 31 34 45 50 52 57 55 46 46 52 49 43 42 41 38 36 36 36 34 31 30 30 31 38 45 45 44 42 41 39 38 37 37 39 41 39 38 37 34 31 31 31 31 30 29 28 25 23 22 21 20 18 17 16 16 15 14
22 22 21 21 20 20 19 18 19 18 17 16 14 14 15 14 13 15 20 23 22 21 23 27 28 24 21 24 27 29 31 31 38 50 52 50 54 50 43 47 52 41 34 38 38 34 34 37 35 33 31 31 31 32 37 44 46 44 41 38 37 37 37 36 38 41 40 38 38 37 34 33 34 33 32 30 28 26 25 24 23 22 19 17 16 15 15 16
Wind_Direction
277 275 274 271 269 267 264 263 261 259 258 257 255 255 254 254 252 251 249 248 246 244 243 242 242 241 241 240 239 239 238 238 237 236 236 236 236 236 237 238 238 237 237 237 238 238 237 237 237 237 237 236 236 237 238 238 238 238 238 240 241 242 244 247 247 248 248 246 244 243 240 234 230 231 230 229 235 239 240 245 249 253 248 246 253 256 256 260
279 277 275 272 270 268 265 263 261 259 258 257 255 254 253 253 252 251 250 248 247 245 244 242 241 241 241 240 240 238 237 237 237 236 235 234 234 235 235 237 237 236 236 236 236 236 236 236 236 235 235 235 235 236 236 236 237 237 238 239 240 241 243 245 245 244 245 242 238 238 238 234 230 230 232 228 230 236 239 243 246 249 248 247 253 256 258 261
284 281 278 275 272 270 267 265 262 260 258 257 256 255 254 252 252 251 250 249 247 246 245 243 242 240 240 240 240 239 238 237 236 235 234 233 233 233 233 234 235 235 234 235 235 235 234 234 234 234 234 234 234 235 235 236 237 237 237 238 238 239 240 240 242 242 241 239 231 227 231 232 229 227 228 228 228 234 238 241 244 248 251 252 255 258 260 263
286 284 281 278 275 272 269 267 265 263 260 258 257 256 255 253 252 251 250 249 248 246 245 244 242 241 240 239 239 238 238 237 236 235 234 233 232 231 231 232 233 233 233 234 234 235 234 234 235 235 234 234 233 234 235 235 236 236 237 238 238 238 238 237 240 240 236 236 225 217 223 228 227 223 222 225 226 231 236 240 244 246 250 253 257 261 263 267
285 284 282 280 278 275 273 270 267 265 263 261 259 257 256 254 253 251 250 249 248 247 245 243 243 242 240 239 238 237 237 237 236 235 234 233 231 230 229 230 231 232 231 232 233 234 234 235 235 235 235 234 234 235 235 235 236 236 237 237 237 236 236 236 237 236 233 230 220 209 216 222 224 222 221 224 227 230 238 245 248 250 252 254 257 261 264 267
286 283 281 279 278 276 274 272 270 267 264 262 260 259 257 255 254 252 250 248 247 246 245 243 242 241 240 239 238 237 236 235 235 235 234 234 232 230 228 228 229 230 230 230 231 232 233 234 234 234 234 234 234 235 236 237 237 236 236 236 236 236 235 235 235 233 231 228 221 210 213 218 221 223 224 226 229 234 241 247 251 253 254 253 253 255 258 261
287 284 282 279 277 275 273 272 270 268 266 264 262 260 258 256 255 253 251 249 247 246 244 243 242 241 240 239 238 236 235 235 235 234 234 234 233 231 229 228 227 228 228 228 228 230 232 232 233 233 233 233 233 234 234 235 237 236 235 235 235 235 233 232 234 233 231 230 227 221 219 220 220 223 228 230 234 240 244 248 250 250 249 250 251 253 255 256
289 286 284 281 278 275 272 270 269 268 266 265 263 261 260 258 256 254 252 250 248 246 244 243 241 241 240 239 238 236 235 235 235 234 233 233 233 232 231 229 228 227 227 227 226 227 229 230 230 231 231 232 233 233 233 234 235 234 234 235 235 234 233 231 231 232 232 230 230 229 229 228 226 227 231 232 238 246 251 250 245 244 249 253 254 256 260 259
292 290 287 284 281 278 275 272 269 267 265 264 263 261 260 259 257 256 253 251 249 247 245 243 241 240 239 238 237 236 235 235 234 233 232 231 232 232 231 230 229 228 227 226 226 225 226 227 228 229 230 230 230 230 231 232 234 234 233 234 234 233 233 231 229 231 232 229 229 231 233 234 236 238 238 236 241 247 247 243 242 245 251 255 257 260 263 261
294 292 290 287 285 282 278 275 272 269 266 264 262 261 259 258 257 256 255 253 251 249 246 244 241 239 238 238 237 235 235 234 233 233 232 230 230 230 230 229 229 229 228 227 226 226 226 227 227 228 228 227 227 226 227 229 231 233 232 233 234 232 232 231 228 230 231 230 230 232 233 235 239 242 242 244 249 250 242 237 241 244 246 250 255 258 258 254
296 294 292 289 286 283 280 277 274 270 267 264 262 261 260 258 256 254 254 253 252 250 247 245 242 240 238 237 236 235 234 234 232 232 231 229 229 229 229 228 228 228 228 228 228 227 227 227 227 227 227 226 226 226 226 228 228 230 230 230 230 230 230 229 227 228 231 232 232 234 235 235 239 241 242 243 248 253 248 239 242 245 246 248 250 252 254 254
298 296 292 289 286 283 280 277 274 271 268 265 262 260 258 257 256 254 252 251 251 250 248 246 243 241 238 236 235 235 234 233 232 231 230 228 228 228 228 227 226 226 226 227 228 228 227 227 227 227 227 226 226 226 226 226 227 229 229 229 229 229 228 227 226 225 228 232 233 235 235 235 239 241 240 237 240 248 248 244 247 250 251 251 249 252 261 264
298 295 292 289 286 283 280 278 275 272 269 267 264 261 258 256 255 254 252 250 249 248 247 246 244 242 239 236 235 235 234 232 232 231 230 229 227 227 227 227 226 225 225 225 226 227 227 227 227 227 227 227 226 227 227 226 226 228 230 230 230 230 228 226 225 224 225 229 231 235 235 234 238 240 240 239 238 243 246 246 249 253 254 254 255 260 267 268
299 296 293 290 287 284 281 278 276 273 271 268 266 263 260 257 254 253 252 251 249 246 245 244 244 242 239 236 236 236 233 232 232 232 231 229 227 225 226 226 224 224 224 223 223 225 227 227 227 226 227 227 227 227 227 228 228 227 228 229 228 230 229 227 227 225 227 229 231 236 236 232 235 237 238 239 239 243 245 245 247 253 257 257 260 264 265 265
302 299 296 293 290 287 284 281 278 275 272 269 267 264 261 259 256 253 252 251 249 246 244 242 241 241 239 236 236 236 233 231 231 231 230 229 226 225 224 224 223 222 222 223 222 222 224 226 226 227 226 226 226 227 226 227 229 229 229 229 227 229 229 228 229 228 229 230 232 237 237 233 235 235 235 235 236 242 245 245 248 254 257 259 261 264 265 266
308 304 300 297 295 292 290 287 283 280 276 272 269 265 261 259 256 253 251 250 248 246 244 242 240 238 237 236 236 235 233 230 229 229 228 227 225 223 223 222 222 221 220 221 221 220 222 224 225 226 227 226 226 226 226 227 228 229 231 231 229 229 229 228 228 229 230 230 233 238 238 235 236 239 239 236 234 240 244 246 249 252 256 259 261 265 269 269
310 306 303 301 299 296 293 289 286 283 279 275 271 267 263 259 255 253 250 248 247 246 244 242 240 237 234 235 234 232 231 230 228 228 227 226 223 221 222 220 220 220 218 218 218 218 219 221 222 223 225 226 226 226 226 226 226 227 229 231 231 230 231 230 229 230 231 232 234 238 239 237 238 240 241 239 236 238 245 247 249 251 255 259 261 266 272 269
312 308 305 304 302 299 295 291 288 285 282 278 274 270 266 261 256 253 250 247 244 244 244 242 240 237 233 233 232 230 230 230 229 227 226 224 219 219 220 218 217 217 215 215 215 215 216 218 219 220 221 222 224 225 226 226 226 228 229 231 232 232 234 234 234 233 232 233 234 238 240 237 239 240 237 240 240 240 244 247 249 252 255 260 263 268 271 270
315 309 304 302 301 300 299 297 294 290 287 283 280 275 270 265 259 254 250 247 243 241 241 241 239 236 234 232 230 228 228 228 228 227 225 222 217 217 218 215 214 214 214 213 213 214 215 216 217 218 219 219 221 223 226 227 227 229 231 232 233 233 234 233 234 234 230 229 229 234 237 234 236 239 236 238 241 242 244 246 249 252 256 260 265 270 272 270
320 313 305 300 299 301 302 302 300 295 292 289 285 281 275 268 262 257 251 246 243 239 237 239 237 235 234 233 230 226 224 225 226 225 224 220 215 215 216 214 212 212 212 213 213 213 214 215 217 218 219 219 220 222 225 226 227 228 229 230 230 230 231 229 230 231 230 230 228 230 233 231 233 238 235 235 237 241 244 246 248 250 253 258 264 271 272 270
329 321 312 305 303 305 306 305 303 299 297 294 291 288 282 273 266 260 254 248 244 240 235 235 235 233 233 233 231 226 222 222 223 224 222 218 215 214 214 213 212 212 211 211 212 212 214 216 217 218 218 218 219 221 223 223 225 228 229 228 227 227 227 226 226 228 230 232 229 228 230 228 230 234 234 235 238 241 244 247 248 248 249 255 262 266 265 264
341 336 329 320 315 313 312 310 307 305 305 302 298 295 289 279 268 261 256 250 246 244 237 232 233 231 230 232 230 225 221 221 221 221 220 217 215 215 215 213 211 211 210 209 210 212 214 216 215 215 216 216 217 220 220 220 223 226 227 226 224 224 224 223 223 223 226 229 226 225 226 224 226 230 231 232 236 241 243 246 248 248 249 253 256 257 257 257
348 349 346 338 330 323 319 318 314 313 313 309 305 304 300 291 278 267 259 252 247 245 239 231 229 229 227 229 230 225 220 219 219 219 218 214 213 214 216 215 211 209 208 209 210 212 215 214 212 212 213 213 215 218 218 217 219 223 224 224 222 221 222 222 222 222 224 226 224 223 224 218 218 224 227 229 233 239 243 245 246 247 248 251 253 254 256 257
349 351 350 345 337 330 327 325 322 321 319 315 317 321 321 316 303 289 274 260 250 244 239 232 228 227 226 226 227 224 218 216 216 217 216 213 210 211 214 215 213 209 208 209 210 213 216 214 210 210 211 211 213 216 217 216 218 220 221 222 220 218 220 221 222 223 224 224 219 218 221 218 217 222 227 233 237 238 243 244 242 244 246 248 250 252 253 255
348 348 350 347 340 335 332 331 332 332 326 320 329 333 333 328 318 310 298 279 259 244 238 233 227 226 225 223 223 222 217 215 215 214 214 211 208 208 210 212 211 209 208 208 209 211 214 213 209 210 210 210 212 215 216 217 218 219 220 220 218 216 216 216 219 222 224 224 218 214 220 222 221 224 229 237 243 245 247 242 238 240 243 244 245 246 248 253
349 346 348 348 343 339 337 339 344 345 336 324 332 335 335 333 327 324 316 317 311 260 235 228 225 224 223 221 221 221 217 213 214 214 211 208 206 205 209 210 210 208 207 207 208 209 211 210 208 209 209 209 211 214 215 216 218 219 218 217 215 214 213 210 214 220 221 220 216 214 220 226 228 229 232 238 247 254 250 236 232 235 238 241 243 245 250 256
354 350 350 352 350 345 344 348 356 359 351 333 333 338 339 335 333 338 347 76 41 5 237 221 217 216 217 215 215 217 214 211 212 212 210 207 204 203 207 209 208 206 205 206 208 209 209 208 207 207 208 208 210 212 213 214 217 217 215 213 211 211 209 206 212 218 217 215 216 216 216 225 234 236 239 244 250 252 242 233 232 232 233 239 245 248 252 256
359 2 6 7 1 353 350 354 1 7 6 356 346 346 347 344 345 1 37 76 59 35 37 207 206 205 209 211 210 209 207 207 209 209 208 206 203 202 205 207 207 205 204 206 207 208 208 207 206 206 207 207 208 210 210 213 215 211 208 209 208 205 199 198 207 213 211 211 215 214 213 221 231 236 241 245 247 244 232 231 236 231 229 232 238 244 248 253
3 15 24 18 9 1 355 357 4 10 11 11 8 3 0 1 6 21 44 56 44 36 42 140 197 199 205 208 207 204 200 199 202 203 203 203 201 201 203 205 205 203 203 205 206 207 207 206 205 206 208 207 207 206 207 212 211 203 202 205 202 198 188 190 200 203 205 210 211 209 212 222 228 232 236 239 246 250 246 249 247 232 229 230 232 240 247 252
5 18 21 14 12 6 359 0 6 10 12 13 15 18 25 29 31 36 38 38 34 34 39 76 191 196 202 203 202 200 196 192 195 199 199 198 199 199 201 204 204 201 201 204 206 205 205 205 204 205 208 208 207 204 204 208 204 195 199 201 197 192 184 188 196 197 204 212 211 210 215 225 232 234 238 244 249 252 254 254 246 233 231 233 235 241 249 254
1 7 8 8 8 3 360 1 4 10 15 16 15 18 27 30 28 29 25 21 29 37 43 87 196 196 199 200 197 195 193 191 192 194 195 194 194 196 199 201 202 201 201 203 204 204 203 203 203 204 206 206 204 201 201 203 196 192 198 197 194 189 183 190 196 197 206 212 213 216 216 221 231 234 238 247 248 249 251 243 227 223 228 230 235 244 252 260
357 356 356 359 359 355 357 0 2 7 14 19 20 18 18 21 22 25 23 25 37 40 43 11 261 204 190 193 192 190 190 191 190 191 193 193 191 193 196 198 199 200 202 202 202 202 202 202 201 202 204 203 200 198 198 197 192 192 195 194 192 187 187 194 198 201 209 212 211 214 213 218 229 232 232 242 248 252 247 228 217 222 233 235 241 248 256 263
354 350 348 350 352 350 350 354 357 358 2 12 24 23 20 23 25 27 26 35 48 35 35 20 316 226 187 184 185 184 185 187 188 188 191 192 190 190 193 195 196 199 202 203 201 200 201 201 199 200 201 200 197 196 197 196 192 191 193 193 191 189 191 197 200 204 210 210 208 210 214 221 228 231 231 234 239 231 210 208 218 232 240 244 247 250 256 257
355 349 345 342 344 343 341 343 346 346 350 1 20 27 27 26 27 28 28 39 46 20 23 27 316 229 188 181 180 180 181 184 185 184 187 190 190 188 190 192 194 197 200 202 201 199 200 200 199 199 199 198 197 196 197 196 193 191 192 193 192 193 195 199 201 205 210 210 208 210 216 221 226 231 236 232 215 206 201 203 216 226 236 245 247 251 253 247
359 353 347 341 338 337 336 338 341 344 350 360 14 28 33 33 32 31 30 33 18 357 1 351 298 211 186 176 173 177 180 181 182 183 184 188 190 189 189 188 191 196 198 200 201 201 201 201 200 199 198 197 197 195 194 194 193 191 192 195 196 195 196 200 203 206 211 211 209 212 216 221 226 229 234 230 219 221 220 214 216 227 239 242 242 250 252 240
3 359 353 348 343 338 338 340 344 350 358 3 12 24 30 32 31 30 26 16 358 344 329 301 280 185 175 165 167 176 179 178 179 182 183 185 189 189 187 186 190 196 198 198 200 201 201 201 201 201 200 197 197 195 194 193 191 190 194 198 198 195 195 201 205 207 211 212 211 214 215 219 225 226 228 227 221 224 227 223 222 231 237 232 235 251 251 233
4 3 359 355 350 344 341 341 346 353 357 360 6 15 26 30 28 26 18 2 354 3 269 294 160 167 169 164 167 176 179 177 177 180 182 184 187 188 186 184 187 193 196 196 199 201 201 200 200 202 201 198 197 195 195 195 190 190 197 199 195 194 197 202 206 207 210 210 212 215 216 218 224 226 227 225 217 215 224 226 224 226 232 229 234 249 245 228
5 5 3 0 357 353 348 342 341 346 351 356 353 347 5 38 39 27 15 359 350 83 152 126 144 165 176 172 172 175 177 177 176 178 182 183 185 187 186 183 183 188 193 195 197 198 199 200 201 201 200 198 197 194 195 195 190 191 197 196 193 197 201 204 206 207 208 210 212 214 215 215 219 223 225 225 219 216 223 228 229 237 250 232 223 229 231 230
5 6 6 3 0 359 357 352 347 344 347 353 350 339 336 29 41 28 17 358 342 168 157 141 149 167 179 173 169 168 171 176 176 177 182 183 184 187 185 180 179 184 189 192 195 197 197 199 201 201 200 199 197 194 194 193 190 189 192 193 197 200 202 205 210 210 210 210 212 213 213 211 216 224 225 224 221 217 221 230 239 250 246 218 206 210 223 232
7 8 9 7 3 2 1 1 1 359 355 356 356 349 332 348 20 21 13 353 331 175 168 158 154 167 174 162 155 155 164 177 178 177 181 181 181 186 185 178 176 181 187 190 193 194 194 197 199 199 198 199 198 196 194 193 190 189 188 191 196 201 201 205 212 213 213 213 214 214 214 213 217 225 226 224 222 218 221 230 242 248 234 210 202 215 236 239
10 12 13 10 7 4 5 7 7 8 7 2 0 359 346 312 325 0 5 349 270 175 166 157 156 163 158 150 149 154 167 180 179 177 179 178 178 184 184 177 174 178 184 189 190 190 192 193 194 195 196 198 199 196 194 193 191 189 190 191 194 200 202 204 210 213 214 216 218 218 219 218 218 223 227 227 222 217 220 231 242 245 232 217 218 235 247 238
12 16 15 12 9 7 9 11 11 14 15 7 5 9 12 11 5 86 35 12 175 166 143 145 146 147 149 150 153 159 170 180 178 176 178 176 177 179 179 175 173 175 181 186 188 188 188 185 186 193 197 197 196 193 193 192 189 189 191 190 193 199 203 205 209 213 214 216 220 222 224 224 223 225 230 233 232 229 233 240 243 243 239 234 237 244 241 227
14 19 18 15 13 13 15 18 18 20 19 16 18 23 30 39 50 67 65 82 145 146 136 142 139 143 149 153 155 158 172 178 174 174 176 175 176 174 173 172 172 174 177 179 179 182 184 182 183 190 194 196 194 189 190 190 187 189 191 190 192 197 202 205 204 211 216 218 221 223 226 229 230 231 234 238 240 240 240 239 237 240 245 246 244 242 234 223
16 18 19 19 19 17 21 27 28 27 27 28 32 33 35 38 44 60 72 88 122 132 137 141 144 150 154 151 147 155 171 170 167 172 173 173 174 170 167 169 171 173 174 172 173 178 184 185 185 185 184 186 187 184 188 190 189 191 192 191 193 195 199 201 199 204 213 217 222 225 226 230 232 232 233 234 236 233 228 226 229 237 246 248 246 245 240 231
19 16 16 21 23 21 25 34 34 31 32 33 35 34 32 34 42 58 72 82 102 126 137 137 146 153 152 147 144 151 159 160 164 170 169 169 168 164 163 166 171 171 168 169 172 178 186 187 187 188 185 183 184 185 191 193 191 193 193 193 194 194 196 198 199 202 205 211 220 224 226 232 233 229 225 222 221 218 217 221 229 237 245 250 250 248 243 235
20 18 16 20 23 23 27 37 39 34 32 31 33 31 28 35 49 58 69 80 94 116 126 127 134 139 142 145 146 143 146 153 162 165 166 164 160 159 162 165 169 169 166 169 173 177 185 188 186 188 189 187 188 189 192 193 192 193 193 193 195 195 195 197 201 205 206 208 215 219 223 231 232 227 219 213 209 211 218 228 237 244 249 246 236 229 226 229
17 19 20 21 23 25 29 34 39 41 38 35 38 35 29 35 50 62 72 81 96 117 123 122 126 132 139 144 141 136 138 147 157 162 163 160 156 158 163 166 169 169 168 172 175 176 182 185 182 182 185 187 190 192 192 192 193 194 193 193 195 196 196 198 201 206 207 204 203 209 215 217 216 216 214 210 208 211 222 233 240 245 243 231 223 220 220 225
14 16 21 24 23 23 26 27 32 41 42 40 40 38 35 37 49 70 86 94 110 125 130 128 130 137 142 139 136 134 134 139 147 154 157 157 157 160 165 167 169 171 172 173 176 177 179 181 180 179 180 185 190 193 194 192 192 194 195 194 195 197 198 199 199 202 205 204 198 202 211 209 206 209 211 213 215 217 223 230 234 236 232 227 228 231 233 234
16 15 19 23 22 20 21 22 23 30 39 40 36 34 35 38 48 69 98 113 121 129 134 133 135 140 140 137 135 134 134 136 143 150 155 157 158 161 166 168 168 172 174 174 177 181 182 181 181 180 179 185 190 193 195 193 192 195 198 199 198 197 199 202 200 199 202 202 199 203 210 208 204 204 207 212 217 220 225 229 232 235 234 233 235 240 244 245
18 20 20 20 21 20 20 21 22 24 29 30 28 29 34 43 54 72 106 125 127 127 127 130 135 139 139 136 136 139 141 143 148 154 157 159 161 163 166 169 169 170 175 176 176 180 182 183 186 185 183 188 192 192 194 195 196 198 201 203 201 197 198 202 201 199 200 201 201 205 209 209 207 205 205 209 213 217 223 228 233 239 243 245 245 246 248 247
12 18 21 21 21 21 20 22 26 29 30 26 23 25 31 44 64 85 112 129 131 126 123 131 137 137 135 133 138 147 149 149 154 157 159 162 165 165 164 167 170 171 177 178 170 167 172 176 178 179 177 181 188 190 191 193 196 200 203 204 204 202 200 201 201 200 199 200 202 206 208 211 212 212 213 215 216 217 222 226 232 239 241 242 244 244 244 246
9 11 15 19 23 24 22 20 24 29 30 26 22 21 26 42 73 98 114 125 127 122 124 135 140 138 134 135 141 148 150 150 155 159 161 166 169 166 161 165 170 170 171 172 165 159 165 168 168 171 172 177 184 186 187 190 195 201 205 205 205 206 204 202 200 199 199 201 203 205 209 214 218 218 219 222 224 227 231 234 239 244 241 238 243 247 250 257